(129370) = 1999 UB33 = 6258 P-L

Discovered at Palomar on 1960-09-24 by C. J. van Houten, I. van Houten-Groeneveld, and T. Gehrels.

Orbit

Orbit type: Main Belt

Note: WebGL enabled browser required.

epoch2024-03-31.0
epoch JD2460400.5
perihelion date2020-11-01.65305
perihelion JD2459155.15305
argument of perihelion (°)94.71881
ascending node (°)218.26913
inclination (°)4.16279
eccentricity0.1536110
perihelion distance (AU)2.6358892
Tisserand w.r.t. Jupiter3.2
ΔV w.r.t. Earth (km/sec)10.2
semimajor axis (AU)3.1142765
mean anomaly (°)223.33586
mean daily motion (°/day)0.17933630
aphelion distance (AU)3.593
period (years)5.5
P-vector [x]0.68021600
P-vector [y]-0.69801865
P-vector [z]-0.22377704
Q-vector [x]0.73163163
Q-vector [y]0.62779911
Q-vector [z]0.26567542
absolute magnitude15.41
phase slope0.15
uncertainty0
referenceMPEC 2024-E73
observations used633
oppositions18
arc length (days)23173
first opposition used1960
last opposition used2024
residual rms (arc-secs)0.68
perturbers coarse indicatorM-v
perturbers precise indicator003Ek
first observation date used1960-09-24.0
last observation date used2024-03-05.0
computer nameMPCLINUX
JD of orbit computation2456937.543430
perihelion JD uncertainty (days)1.1161E-04
argument of perihelion uncertainty (°)5.8433E-05
ascending node uncertainty (°)5.4931E-05
inclination uncertainty (°)6.0250E-06
eccentricity uncertainty 4.0486E-08
perihelion distance uncertainty (AU)1.3054E-07
Minimum Orbit Intersection Distances (in AU)
for orbit epoch: 2460400.5, reference: E2024-G51
Mercury2.21241
Venus1.91509
Earth1.62593
Mars1.2549
Jupiter1.6984
Saturn5.53779
Uranus14.9112
Neptune26.5662

Observations

640 total observations over interval: 1960 09 24.31111 – 2024 03 05.281370
These data are available for download (format description).

Date (UT) J2000 RA J2000 Dec Magn Location Ref
1960 09 24.31111 00 05 58.03 +04 57 18.1 19.9   675 – Palomar Mountain MPS 285394
1960 09 24.33613 00 05 56.90 +04 57 09.3 19.3   675 – Palomar Mountain MPS 285394
1960 09 24.33613 00 05 56.91 +04 57 08.9 19.8   675 – Palomar Mountain MPS 10444
1960 09 25.29097 00 05 15.50 +04 51 24.7 19.3 V 675 – Palomar Mountain MPS 285394
1960 09 25.32500 00 05 13.93 +04 51 11.1 19.5 V 675 – Palomar Mountain MPS 285394
1960 09 26.25555 00 04 33.77 +04 45 31.9 20.0   675 – Palomar Mountain MPS 285394
1960 09 26.27569 00 04 32.86 +04 45 25.0 19.7   675 – Palomar Mountain MPS 285394
1960 09 28.30764 00 03 05.41 +04 33 01.7 20.3   675 – Palomar Mountain MPS 285394
1960 09 28.32778 00 03 04.49 +04 32 54.7 20.1   675 – Palomar Mountain MPS 285394
1960 10 17.19098 23 51 22.51 +02 43 16.3 20.1   675 – Palomar Mountain MPS 285394
1960 10 17.21389 23 51 21.85 +02 43 09.2 19.9   675 – Palomar Mountain MPS 285394
1960 10 22.13195 23 49 11.76 +02 19 02.0 20.0   675 – Palomar Mountain MPS 285394
1960 10 22.15556 23 49 11.15 +02 18 54.8 19.6   675 – Palomar Mountain MPS 285394
1960 10 24.18820 23 48 25.70 +02 09 45.8 19.5 V 675 – Palomar Mountain MPS 285394
1999 10 06.30757 02 15 07.80 +14 42 01.8 18.8   704 – Lincoln Laboratory ETS, New Mexico MPS 9952
1999 10 06.32082 02 15 07.27 +14 41 58.4 19.5   704 – Lincoln Laboratory ETS, New Mexico MPS 9952
1999 10 06.33405 02 15 06.77 +14 41 55.0 19.3   704 – Lincoln Laboratory ETS, New Mexico MPS 9952
1999 10 06.34728 02 15 06.21 +14 41 51.3 19.7   704 – Lincoln Laboratory ETS, New Mexico MPS 9952
1999 10 06.36051 02 15 05.65 +14 41 47.5 19.6   704 – Lincoln Laboratory ETS, New Mexico MPS 9952
1999 10 14.375670 02 09 33.292 +14 03 23.78 19.49 V 645 – Apache Point-Sloan Digital Sky Survey MPS 80324
1999 10 14.379142 02 09 33.131 +14 03 22.71 20.22   645 – Apache Point-Sloan Digital Sky Survey MPS 80324
1999 10 31.41049 01 56 31.46 +12 30 55.3 19.6 V 691 – Steward Observatory, Kitt Peak-Spacewatch MPS 8612
1999 10 31.43171 01 56 30.48 +12 30 48.3 19.7 V 691 – Steward Observatory, Kitt Peak-Spacewatch MPS 8612
1999 10 31.46453 01 56 28.95 +12 30 37.0 19.7 V 691 – Steward Observatory, Kitt Peak-Spacewatch MPS 8612
1999 11 05.37302 01 52 52.92 +12 04 01.5 19.9 V 691 – Steward Observatory, Kitt Peak-Spacewatch MPS 8612
1999 11 05.39540 01 52 51.90 +12 03 54.9 19.6 V 691 – Steward Observatory, Kitt Peak-Spacewatch MPS 8612
1999 11 05.41776 01 52 50.93 +12 03 47.6 19.6 V 691 – Steward Observatory, Kitt Peak-Spacewatch MPS 8612
1999 11 12.27477 01 48 15.87 +11 28 49.8 20.3 V 691 – Steward Observatory, Kitt Peak-Spacewatch MPS 17180
1999 11 12.29665 01 48 15.03 +11 28 43.7 20.0 V 691 – Steward Observatory, Kitt Peak-Spacewatch MPS 17180
1999 11 12.33123 01 48 13.68 +11 28 33.4 20.2 V 691 – Steward Observatory, Kitt Peak-Spacewatch MPS 17180
2004 08 09.35927 22 56 33.47 -00 31 43.0   704 – Lincoln Laboratory ETS, New Mexico MPS 406731
2004 08 09.37829 22 56 32.87 -00 31 46.7   704 – Lincoln Laboratory ETS, New Mexico MPS 406731
2004 08 10.37924 22 56 01.95 -00 34 33.5 18.5 R 699 – Lowell Observatory-LONEOS MPS 111281
2004 08 10.39333 22 56 01.59 -00 34 35.3   699 – Lowell Observatory-LONEOS MPS 111281
2004 08 10.40629 22 56 01.09 -00 34 37.9   699 – Lowell Observatory-LONEOS MPS 111281
2004 08 10.41929 22 56 00.65 -00 34 41.5   699 – Lowell Observatory-LONEOS MPS 111281
2004 08 12.25179 22 55 01.71 -00 40 13.9 19.3   704 – Lincoln Laboratory ETS, New Mexico MPS 111920
2004 08 12.26158 22 55 01.37 -00 40 14.6 19.7   704 – Lincoln Laboratory ETS, New Mexico MPS 111920
2004 08 12.27144 22 55 00.97 -00 40 16.6 19.9   704 – Lincoln Laboratory ETS, New Mexico MPS 111920
2004 08 12.28120 22 55 00.62 -00 40 18.8 19.8   704 – Lincoln Laboratory ETS, New Mexico MPS 111920
2004 08 12.29099 22 55 00.30 -00 40 20.3 19.5   704 – Lincoln Laboratory ETS, New Mexico MPS 111920
2004 08 17.30003 22 52 02.19 -00 58 02.7 19.1   704 – Lincoln Laboratory ETS, New Mexico MPS 111920
2004 08 17.31036 22 52 01.78 -00 58 05.5 19.5   704 – Lincoln Laboratory ETS, New Mexico MPS 111920
2004 08 17.32052 22 52 01.37 -00 58 07.7 19.2   704 – Lincoln Laboratory ETS, New Mexico MPS 111920
2004 08 17.33082 22 52 00.95 -00 58 09.8 19.3   704 – Lincoln Laboratory ETS, New Mexico MPS 111920
2004 08 17.34113 22 52 00.53 -00 58 12.5 19.6   704 – Lincoln Laboratory ETS, New Mexico MPS 111920
2004 08 26.31160 22 45 58.48 -01 38 01.2 18.5 R 703 – Catalina Sky Survey MPS 112275
2004 08 26.32233 22 45 57.87 -01 38 05.4 17.7 R 703 – Catalina Sky Survey MPS 112275
2004 08 26.33312 22 45 57.57 -01 38 07.6 18.5 R 703 – Catalina Sky Survey MPS 112275
2004 08 26.34383 22 45 57.05 -01 38 09.2 18.1 R 703 – Catalina Sky Survey MPS 112275
2004 09 08.18025 22 36 47.60 -02 46 34.9 18.8   704 – Lincoln Laboratory ETS, New Mexico MPS 112896
2004 09 08.19117 22 36 47.19 -02 46 38.3 18.9   704 – Lincoln Laboratory ETS, New Mexico MPS 112896
2004 09 08.20221 22 36 46.71 -02 46 42.1 19.1   704 – Lincoln Laboratory ETS, New Mexico MPS 112896
2004 09 09.22920 22 36 03.99 -02 52 27.0 18.4   704 – Lincoln Laboratory ETS, New Mexico MPS 112896
2004 09 09.23353 22 36 03.78 -02 52 28.4 18.6   704 – Lincoln Laboratory ETS, New Mexico MPS 112896
2004 09 09.24059 22 36 03.45 -02 52 30.5 18.6   704 – Lincoln Laboratory ETS, New Mexico MPS 112896
2004 09 09.24588 22 36 03.29 -02 52 32.2 19.2   704 – Lincoln Laboratory ETS, New Mexico MPS 112896
2004 09 09.25199 22 36 02.97 -02 52 34.4 18.8   704 – Lincoln Laboratory ETS, New Mexico MPS 112896
2004 09 09.25809 22 36 02.70 -02 52 36.0 19.2   704 – Lincoln Laboratory ETS, New Mexico MPS 112896
2004 09 09.26339 22 36 02.51 -02 52 37.2 18.6   704 – Lincoln Laboratory ETS, New Mexico MPS 112896
2004 09 09.26973 22 36 02.20 -02 52 40.7 19.0   704 – Lincoln Laboratory ETS, New Mexico MPS 112896
2004 09 09.27480 22 36 02.01 -02 52 42.2 18.9   704 – Lincoln Laboratory ETS, New Mexico MPS 112896
2004 09 09.28150 22 36 01.74 -02 52 44.8 18.3 R 699 – Lowell Observatory-LONEOS MPS 113327
2004 09 09.28158 22 36 01.72 -02 52 43.9 19.1   704 – Lincoln Laboratory ETS, New Mexico MPS 112896
2004 09 09.29123 22 36 01.34 -02 52 47.1   699 – Lowell Observatory-LONEOS MPS 113327
2004 09 09.30094 22 36 00.85 -02 52 51.0   699 – Lowell Observatory-LONEOS MPS 113327
2004 09 09.31065 22 36 00.48 -02 52 54.1   699 – Lowell Observatory-LONEOS MPS 113327
2004 09 10.23257 22 35 22.71 -02 58 03.2 19.0   704 – Lincoln Laboratory ETS, New Mexico MPS 113327
2004 09 10.24439 22 35 22.22 -02 58 07.4 19.0   704 – Lincoln Laboratory ETS, New Mexico MPS 113327
2004 09 10.25617 22 35 21.71 -02 58 11.4 19.3   704 – Lincoln Laboratory ETS, New Mexico MPS 113327
2004 09 10.26818 22 35 21.22 -02 58 15.7 19.0   704 – Lincoln Laboratory ETS, New Mexico MPS 113327
2004 09 10.28046 22 35 20.67 -02 58 19.5 19.0   704 – Lincoln Laboratory ETS, New Mexico MPS 113327
2004 09 13.17842 22 33 24.96 -03 14 31.5 18.7   704 – Lincoln Laboratory ETS, New Mexico MPS 113327
2004 09 13.18990 22 33 24.53 -03 14 35.9 19.0   704 – Lincoln Laboratory ETS, New Mexico MPS 113327
2004 09 13.20145 22 33 24.02 -03 14 38.6 19.0   704 – Lincoln Laboratory ETS, New Mexico MPS 113327
2004 09 13.21292 22 33 23.56 -03 14 42.6 19.2   704 – Lincoln Laboratory ETS, New Mexico MPS 113327
2004 09 13.22444 22 33 23.12 -03 14 47.5 19.1   704 – Lincoln Laboratory ETS, New Mexico MPS 113327
2004 09 18.24523 22 30 16.36 -03 42 21.1 19.2   704 – Lincoln Laboratory ETS, New Mexico MPS 114676
2004 09 18.25751 22 30 15.90 -03 42 25.6 19.2   704 – Lincoln Laboratory ETS, New Mexico MPS 114676
2004 09 18.26968 22 30 15.44 -03 42 29.9 19.7   704 – Lincoln Laboratory ETS, New Mexico MPS 114676
2004 09 18.28185 22 30 14.98 -03 42 33.3 20.0   704 – Lincoln Laboratory ETS, New Mexico MPS 114676
2004 09 18.29405 22 30 14.58 -03 42 36.8 19.3   704 – Lincoln Laboratory ETS, New Mexico MPS 114676
2005 10 29.41994 05 11 05.06 +20 21 38.5 20.2 V G96 – Mt. Lemmon Survey MPS 147995
2005 10 29.42678 05 11 04.88 +20 21 38.1 20.1 V G96 – Mt. Lemmon Survey MPS 147995
2005 10 29.43375 05 11 04.70 +20 21 36.9 20.1 V G96 – Mt. Lemmon Survey MPS 147995
